This is the latest recevied weather packets stored in our database for station/object N3WMC. If no packets are shown the sender has not sent any weather packets the latest 10 day(s).
| Time | Temp. | Humidity | Pressure | Rain* | Wind** | Luminosity | Snow |
|---|---|---|---|---|---|---|---|
| 1778160409 | 10° C | 67% | 1014.4 hPa | 0 mm | - | 58 W/m² | - |
| 1778160105 | 10° C | 66% | 1014.6 hPa | 0 mm | - | 122 W/m² | - |
| 1778159802 | 10.56° C | 64% | 1014.6 hPa | 0 mm | - | 61 W/m² | - |
| 1778159500 | 10° C | 66% | 1014.3 hPa | 0 mm | - | 214 W/m² | - |
| 1778159196 | 10° C | 70% | 1014.6 hPa | 0 mm | - | 58 W/m² | - |
| 1778158894 | 9.44° C | 70% | 1014.5 hPa | 0 mm | - | 74 W/m² | - |
| 1778158593 | 8.89° C | 77% | 1014.5 hPa | 0 mm | - | 153 W/m² | - |
| 1778158290 | 8.33° C | 78% | 1014.7 hPa | 0 mm | - | 175 W/m² | - |
| 1778157986 | 8.33° C | 79% | 1014.6 hPa | 0 mm | - | 52 W/m² | - |
| 1778157684 | 7.78° C | 80% | 1014.6 hPa | 0 mm | - | 43 W/m² | - |
| 1778157382 | 7.78° C | 80% | 1014.6 hPa | 0 mm | - | 42 W/m² | - |
| 1778157079 | 7.78° C | 81% | 1014.8 hPa | 0 mm | - | 46 W/m² | - |
| 1778156774 | 7.78° C | 82% | 1014.5 hPa | 0 mm | - | 39 W/m² | - |
| 1778156470 | 7.22° C | 87% | 1014.7 hPa | 0 mm | - | 70 W/m² | - |
| 1778156166 | 6.67° C | 93% | 1014.6 hPa | 0 mm | - | 68 W/m² | - |
| 1778155862 | 6.11° C | 96% | 1014.7 hPa | 0 mm | - | 120 W/m² | - |
| 1778155558 | 5.56° C | 97% | 1014.6 hPa | 0 mm | - | 110 W/m² | - |
| 1778155255 | 5° C | 97% | 1014.7 hPa | 0 mm | - | 91 W/m² | - |
| 1778154951 | 5° C | 98% | 1014.6 hPa | 0 mm | - | 49 W/m² | - |
| 1778154647 | 3.89° C | 97% | 1014.7 hPa | 0 mm | - | 50 W/m² | - |
| 1778154343 | 3.89° C | 97% | 1014.8 hPa | 0 mm | - | 43 W/m² | - |
| 1778154041 | 3.33° C | 97% | 1014.5 hPa | 0 mm | - | 33 W/m² | - |
| 1778153738 | 3.33° C | 97% | 1014.6 hPa | 0 mm | - | 31 W/m² | - |
| 1778153436 | 2.78° C | 98% | 1014.5 hPa | 0 mm | - | 29 W/m² | - |
| 1778153133 | 2.22° C | 97% | 1014.5 hPa | 0 mm | - | 29 W/m² | - |
* Rain latest hour (hover to see other rain measurements)
** Current wind speed in m/s (hover to see current wind gust speed)